When you browse on this site, cookies collect data to enhance your experience and personalize the content and advertising you see.
Visit our Privacy Policy to learn more. By continuing to use the site, you agree to this use of cookies and data.
  • En España
  • Lista de países
  • Para 7 días
  • Temperatura del agua
  • Mapa Satelital
  • El tiempo en el mapa
  • Informadores
  • user-avatar
    Iniciar sesión

    Tiempo cada hora Uige

    Hoy, 17 Diciembre, Lunes

    Tiempo Temperatura Precipitaciones Viento Presión Humedad
    00:00 +19°C° 0.6 mm 0 mps 693 mmHg 97%
    01:00 +19°C° 0 mm 0 mps 693 mmHg 97%
    02:00 +19°C° 0.5 mm 0 mps 692 mmHg 98%
    03:00 +19°C° 0.5 mm 0 mps 692 mmHg 98%
    04:00 +19°C° 0.5 mm 0 mps 692 mmHg 98%
    05:00 +21°C° 0.2 mm 1 mps 692 mmHg 98%
    06:00 +22°C° 0.2 mm 1 mps 693 mmHg 98%
    07:00 +22°C° 0.2 mm 1 mps 693 mmHg 98%
    08:00 +23°C° 0.1 mm 1 mps 693 mmHg 95%
    09:00 +24°C° 0.1 mm 1 mps 693 mmHg 91%
    10:00 +24°C° 0.1 mm 1 mps 693 mmHg 88%
    11:00 +26°C° 0.3 mm 1 mps 693 mmHg 80%
    12:00 +28°C° 0.3 mm 2 mps 693 mmHg 73%
    13:00 +29°C° 0.3 mm 2 mps 692 mmHg 65%
    14:00 +29°C° 0.7 mm 2 mps 692 mmHg 71%
    15:00 +28°C° 0.7 mm 2 mps 691 mmHg 78%
    16:00 +28°C° 0.7 mm 2 mps 691 mmHg 84%
    17:00 +26°C° 0.5 mm 1 mps 691 mmHg 88%
    18:00 +25°C° 0.5 mm 1 mps 691 mmHg 91%
    19:00 +21°C° 0.5 mm 0 mps 691 mmHg 95%
    20:00 +21°C° 0.8 mm 0 mps 691 mmHg 95%
    21:00 +21°C° 0.8 mm 0 mps 692 mmHg 95%
    22:00 +20°C° 0.8 mm 0 mps 692 mmHg 96%
    23:00 +20°C° 0.5 mm 0 mps 692 mmHg 96%

    Mañana, 18 Diciembre, Martes

    Tiempo Temperatura Precipitaciones Viento Presión Humedad
    00:00 +20°C° 0.5 mm 0 mps 692 mmHg 96%
    01:00 +20°C° 0.5 mm 0 mps 692 mmHg 97%
    02:00 +20°C° 0.5 mm 0 mps 692 mmHg 97%
    03:00 +20°C° 0.5 mm 0 mps 692 mmHg 98%
    04:00 +20°C° 0.5 mm 0 mps 692 mmHg 98%
    05:00 +22°C° 0.5 mm 1 mps 692 mmHg 98%
    06:00 +22°C° 0.5 mm 1 mps 692 mmHg 98%
    07:00 +22°C° 0.5 mm 1 mps 693 mmHg 97%
    08:00 +23°C° 0.5 mm 1 mps 693 mmHg 93%
    09:00 +24°C° 0.5 mm 1 mps 693 mmHg 89%
    10:00 +25°C° 0.5 mm 1 mps 693 mmHg 85%
    11:00 +26°C° 0.5 mm 2 mps 693 mmHg 83%
    12:00 +27°C° 0.5 mm 2 mps 693 mmHg 81%
    13:00 +27°C° 0.5 mm 2 mps 692 mmHg 79%
    14:00 +27°C° 1.1 mm 2 mps 692 mmHg 81%
    15:00 +27°C° 1.1 mm 1 mps 691 mmHg 83%
    16:00 +26°C° 1.1 mm 1 mps 691 mmHg 84%
    17:00 +25°C° 0.9 mm 1 mps 691 mmHg 88%
    18:00 +24°C° 0.9 mm 1 mps 691 mmHg 92%
    19:00 +23°C° 0.9 mm 1 mps 691 mmHg 96%
    20:00 +22°C° 0.1 mm 1 mps 692 mmHg 97%
    21:00 +22°C° 0.1 mm 1 mps 692 mmHg 98%
    22:00 +22°C° 0.1 mm 1 mps 693 mmHg 98%
    23:00 +22°C° 0.2 mm 1 mps 693 mmHg 99%

    Pasado mañana, 19 Diciembre, Miércoles

    Tiempo Temperatura Precipitaciones Viento Presión Humedad
    00:00 +22°C° 0.2 mm 1 mps 692 mmHg 99%
    01:00 +22°C° 0.2 mm 1 mps 692 mmHg 99%
    02:00 +22°C° 0.1 mm 1 mps 692 mmHg 99%
    03:00 +22°C° 0.1 mm 1 mps 691 mmHg 99%
    04:00 +22°C° 0.1 mm 1 mps 691 mmHg 99%
    05:00 +22°C° 0.1 mm 1 mps 692 mmHg 98%
    06:00 +22°C° 0.1 mm 1 mps 692 mmHg 98%
    07:00 +22°C° 0.1 mm 1 mps 692 mmHg 98%
    08:00 +23°C° 0.1 mm 1 mps 693 mmHg 95%
    09:00 +24°C° 0.1 mm 1 mps 693 mmHg 92%
    10:00 +24°C° 0.1 mm 1 mps 693 mmHg 90%
    11:00 +25°C° 0.3 mm 2 mps 693 mmHg 84%
    12:00 +26°C° 0.3 mm 2 mps 692 mmHg 79%
    13:00 +27°C° 0.3 mm 2 mps 692 mmHg 74%
    14:00 +27°C° 0.5 mm 2 mps 691 mmHg 79%
    15:00 +26°C° 0.5 mm 2 mps 691 mmHg 84%
    16:00 +26°C° 0.5 mm 2 mps 690 mmHg 90%
    17:00 +25°C° 0.4 mm 1 mps 690 mmHg 92%
    18:00 +24°C° 0.4 mm 1 mps 691 mmHg 95%
    19:00 +23°C° 0.4 mm 1 mps 691 mmHg 98%
    20:00 +22°C° 0.1 mm 1 mps 691 mmHg 98%
    21:00 +22°C° 0.1 mm 1 mps 692 mmHg 98%
    22:00 +22°C° 0.1 mm 1 mps 692 mmHg 99%
    23:00 +22°C° 0.4 mm 1 mps 692 mmHg 99%

    20 Diciembre, Jueves

    Tiempo Temperatura Precipitaciones Viento Presión Humedad
    00:00 +21°C° 0.4 mm 1 mps 692 mmHg 99%
    01:00 +21°C° 0.4 mm 1 mps 691 mmHg 99%
    02:00 +21°C° 0.3 mm 1 mps 691 mmHg 99%
    03:00 +21°C° 0.3 mm 1 mps 691 mmHg 99%
    04:00 +22°C° 0.3 mm 1 mps 691 mmHg 99%
    05:00 +22°C° 0.4 mm 1 mps 692 mmHg 99%
    06:00 +22°C° 0.4 mm 1 mps 692 mmHg 99%
    07:00 +22°C° 0.4 mm 1 mps 693 mmHg 98%
    08:00 +22°C° 0.8 mm 1 mps 693 mmHg 96%
    09:00 +23°C° 0.8 mm 1 mps 693 mmHg 94%
    10:00 +23°C° 0.8 mm 1 mps 693 mmHg 92%
    11:00 +24°C° 0.8 mm 1 mps 693 mmHg 91%
    12:00 +24°C° 0.8 mm 1 mps 692 mmHg 90%
    13:00 +24°C° 0.8 mm 1 mps 692 mmHg 90%
    14:00 +24°C° 0.4 mm 1 mps 691 mmHg 90%
    15:00 +24°C° 0.4 mm 1 mps 691 mmHg 91%
    16:00 +24°C° 0.4 mm 1 mps 690 mmHg 91%
    17:00 +23°C° 0.2 mm 1 mps 691 mmHg 93%
    18:00 +23°C° 0.2 mm 1 mps 691 mmHg 96%
    19:00 +20°C° 0.2 mm 0 mps 691 mmHg 98%
    20:00 +20°C° 0 mm 0 mps 692 mmHg 98%
    21:00 +19°C° 0 mm 0 mps 692 mmHg 98%
    22:00 +19°C° 0 mm 0 mps 693 mmHg 98%
    23:00 +19°C° 0 mm 0 mps 692 mmHg 98%

    21 Diciembre, Viernes

    Tiempo Temperatura Precipitaciones Viento Presión Humedad
    00:00 +19°C° 0 mm 0 mps 692 mmHg 98%
    01:00 +18°C° 0 mm 0 mps 691 mmHg 98%
    02:00 +20°C° 0 mm 1 mps 691 mmHg 98%
    03:00 +20°C° 0 mm 1 mps 691 mmHg 98%
    04:00 +20°C° 0 mm 1 mps 690 mmHg 99%
    05:00 +20°C° 0 mm 1 mps 691 mmHg 98%
    06:00 +21°C° 0 mm 1 mps 692 mmHg 98%
    07:00 +21°C° 0 mm 1 mps 692 mmHg 98%
    08:00 +22°C° 0 mm 1 mps 692 mmHg 94%
    09:00 +23°C° 0 mm 1 mps 693 mmHg 89%
    10:00 +24°C° 0 mm 1 mps 693 mmHg 85%
    11:00 +24°C° 0.2 mm 1 mps 692 mmHg 83%
    12:00 +25°C° 0.2 mm 1 mps 691 mmHg 81%
    13:00 +25°C° 0.2 mm 2 mps 691 mmHg 79%
    14:00 +26°C° 0.6 mm 2 mps 690 mmHg 81%
    15:00 +26°C° 0.6 mm 2 mps 690 mmHg 83%
    16:00 +26°C° 0.6 mm 2 mps 689 mmHg 84%
    17:00 +25°C° 0.4 mm 1 mps 690 mmHg 88%
    18:00 +23°C° 0.4 mm 1 mps 690 mmHg 91%
    19:00 +22°C° 0.4 mm 1 mps 690 mmHg 95%
    20:00 +22°C° 1 mm 1 mps 691 mmHg 96%
    21:00 +21°C° 1 mm 1 mps 691 mmHg 97%
    22:00 +19°C° 1 mm 0 mps 691 mmHg 98%
    23:00 +19°C° 0.2 mm 0 mps 691 mmHg 98%

    22 Diciembre, Sábado

    Tiempo Temperatura Precipitaciones Viento Presión Humedad
    00:00 +19°C° 0.2 mm 0 mps 691 mmHg 98%
    01:00 +18°C° 0.2 mm 0 mps 690 mmHg 99%
    02:00 +19°C° 0 mm 0 mps 690 mmHg 99%
    03:00 +21°C° 0 mm 1 mps 690 mmHg 99%
    04:00 +21°C° 0 mm 1 mps 690 mmHg 99%
    05:00 +21°C° 0 mm 1 mps 691 mmHg 98%
    06:00 +21°C° 0 mm 1 mps 691 mmHg 98%
    07:00 +21°C° 0 mm 1 mps 692 mmHg 97%
    08:00 +22°C° 0 mm 1 mps 692 mmHg 91%
    09:00 +24°C° 0 mm 1 mps 692 mmHg 85%
    10:00 +25°C° 0 mm 1 mps 692 mmHg 79%
    11:00 +26°C° 0.1 mm 2 mps 692 mmHg 74%
    12:00 +27°C° 0.1 mm 2 mps 691 mmHg 69%
    13:00 +28°C° 0.1 mm 2 mps 691 mmHg 64%
    14:00 +28°C° 0.3 mm 2 mps 690 mmHg 71%
    15:00 +27°C° 0.3 mm 2 mps 690 mmHg 78%
    16:00 +26°C° 0.3 mm 2 mps 689 mmHg 84%
    17:00 +25°C° 0.4 mm 2 mps 689 mmHg 88%
    18:00 +23°C° 0.4 mm 1 mps 689 mmHg 93%
    19:00 +22°C° 0.4 mm 1 mps 690 mmHg 97%
    20:00 +22°C° 0 mm 1 mps 690 mmHg 97%
    21:00 +21°C° 0 mm 1 mps 690 mmHg 97%
    22:00 +21°C° 0 mm 1 mps 691 mmHg 98%
    23:00 +19°C° 0 mm 0 mps 690 mmHg 98%
    Mostrar más